Terug naar catalogus

NETSAT-1

ActiefWetenschapPO
NORAD 46506·PAYLOAD·🇩🇪 Germany

Gelanceerd Sep 28, 2020 vanaf Plesetsk Cosmodrome

Loading…

Volgende Passages (komende 24 uur)

TLE

VersSource: Space-Track

Epoch: Sep 13, 2026, 22:53 UTC

1 46506U 20068W   26256.95364847  .00010452  00000-0  29613-3 0  9990
2 46506  97.8778 263.8639 0006218  66.5978 293.5918 15.36458597328928

Volg NETSAT-1 in realtime met AllMySat

Download on the App Store